Year,Month,Day,Hour,Minute,Value (Times are PST for temperature in C)
2012,04,16,00,00,10.30
2012,04,16,00,01,10.30
2012,04,16,00,02,10.30
2012,04,16,00,03,10.30
2012,04,16,00,04,10.30
2012,04,16,00,05,10.30
2012,04,16,00,06,10.30
2012,04,16,00,07,10.30
2012,04,16,00,08,10.20
2012,04,16,00,09,10.10
2012,04,16,00,10,10.00
2012,04,16,00,11,10.00
2012,04,16,00,12,10.00
2012,04,16,00,13,10.00
2012,04,16,00,14,10.00
2012,04,16,00,15,10.00
2012,04,16,00,16,10.00
2012,04,16,00,17,10.00
2012,04,16,00,18,10.10
2012,04,16,00,19,10.10
2012,04,16,00,20,10.10
2012,04,16,00,21,10.10
2012,04,16,00,22,10.10
2012,04,16,00,23,10.20
2012,04,16,00,24,10.20
2012,04,16,00,25,10.20
2012,04,16,00,26,10.20
2012,04,16,00,27,10.10
2012,04,16,00,28,10.10
2012,04,16,00,29,10.10
2012,04,16,00,30,10.10
2012,04,16,00,31,10.00
2012,04,16,00,32,9.90
2012,04,16,00,33,9.90
2012,04,16,00,34,9.90
2012,04,16,00,35,9.90
2012,04,16,00,36,9.90
2012,04,16,00,37,9.80
2012,04,16,00,38,9.80
2012,04,16,00,39,9.80
2012,04,16,00,40,9.80
2012,04,16,00,41,9.80
2012,04,16,00,42,9.80
2012,04,16,00,43,9.80
2012,04,16,00,44,9.70
2012,04,16,00,45,9.70
2012,04,16,00,46,9.70
2012,04,16,00,47,9.70
2012,04,16,00,48,9.70
2012,04,16,00,49,9.70
2012,04,16,00,50,9.70
2012,04,16,00,51,9.70
2012,04,16,00,52,9.70
2012,04,16,00,53,9.70
2012,04,16,00,54,9.70
2012,04,16,00,55,9.70
2012,04,16,00,56,9.70
2012,04,16,00,57,9.70
2012,04,16,00,58,9.70
2012,04,16,00,59,9.70
2012,04,16,01,00,9.70
2012,04,16,01,01,9.70
2012,04,16,01,02,9.60
2012,04,16,01,03,9.60
2012,04,16,01,04,9.60
2012,04,16,01,05,9.60
2012,04,16,01,06,9.60
2012,04,16,01,07,9.60
2012,04,16,01,08,9.60
2012,04,16,01,09,9.60
2012,04,16,01,10,9.60
2012,04,16,01,11,9.60
2012,04,16,01,12,9.60
2012,04,16,01,13,9.50
2012,04,16,01,14,9.50
2012,04,16,01,15,9.50
2012,04,16,01,16,9.50
2012,04,16,01,17,9.40
2012,04,16,01,18,9.40
2012,04,16,01,19,9.40
2012,04,16,01,20,9.40
2012,04,16,01,21,9.40
2012,04,16,01,22,9.30
2012,04,16,01,23,9.30
2012,04,16,01,24,9.30
2012,04,16,01,25,9.30
2012,04,16,01,26,9.30
2012,04,16,01,27,9.30
2012,04,16,01,28,9.20
2012,04,16,01,29,9.20
2012,04,16,01,30,9.30
2012,04,16,01,31,9.30
2012,04,16,01,32,9.40
2012,04,16,01,33,9.40
2012,04,16,01,34,9.50
2012,04,16,01,35,9.60
2012,04,16,01,36,9.60
2012,04,16,01,37,9.70
2012,04,16,01,38,9.70
2012,04,16,01,39,9.80
2012,04,16,01,40,9.80
2012,04,16,01,41,9.80
2012,04,16,01,42,9.90
2012,04,16,01,43,9.90
2012,04,16,01,44,9.90
2012,04,16,01,45,9.90
2012,04,16,01,46,9.90
2012,04,16,01,47,9.90
2012,04,16,01,48,9.90
2012,04,16,01,49,9.90
2012,04,16,01,50,10.00
2012,04,16,01,51,10.00
2012,04,16,01,52,9.90
2012,04,16,01,53,9.90
2012,04,16,01,54,9.90
2012,04,16,01,55,9.90
2012,04,16,01,56,9.90
2012,04,16,01,57,9.90
2012,04,16,01,58,9.90
2012,04,16,01,59,9.90
2012,04,16,02,00,9.90
2012,04,16,02,01,9.90
2012,04,16,02,02,9.80
2012,04,16,02,03,9.80
2012,04,16,02,04,9.80
2012,04,16,02,05,9.80
2012,04,16,02,06,9.80
2012,04,16,02,07,9.80
2012,04,16,02,08,9.80
2012,04,16,02,09,9.80
2012,04,16,02,10,9.70
2012,04,16,02,11,9.70
2012,04,16,02,12,9.70
2012,04,16,02,13,9.70
2012,04,16,02,14,9.70
2012,04,16,02,15,9.70
2012,04,16,02,16,9.70
2012,04,16,02,17,9.70
2012,04,16,02,18,9.70
2012,04,16,02,19,9.60
2012,04,16,02,20,9.60
2012,04,16,02,21,9.60
2012,04,16,02,22,9.60
2012,04,16,02,23,9.60
2012,04,16,02,24,9.60
2012,04,16,02,25,9.50
2012,04,16,02,26,9.50
2012,04,16,02,27,9.40
2012,04,16,02,28,9.40
2012,04,16,02,29,9.40
2012,04,16,02,30,9.40
2012,04,16,02,31,9.30
2012,04,16,02,32,9.30
2012,04,16,02,33,9.30
2012,04,16,02,34,9.30
2012,04,16,02,35,9.20
2012,04,16,02,36,9.20
2012,04,16,02,37,9.20
2012,04,16,02,38,9.20
2012,04,16,02,39,9.20
2012,04,16,02,40,9.20
2012,04,16,02,41,9.10
2012,04,16,02,42,9.10
2012,04,16,02,43,9.10
2012,04,16,02,44,9.10
2012,04,16,02,45,9.10
2012,04,16,02,46,9.00
2012,04,16,02,47,9.00
2012,04,16,02,48,9.00
2012,04,16,02,49,8.90
2012,04,16,02,50,8.90
2012,04,16,02,51,8.90
2012,04,16,02,52,8.90
2012,04,16,02,53,8.90
2012,04,16,02,54,8.90
2012,04,16,02,55,8.80
2012,04,16,02,56,8.80
2012,04,16,02,57,8.80
2012,04,16,02,58,8.80
2012,04,16,02,59,8.80
2012,04,16,03,00,8.80
2012,04,16,03,01,8.70
2012,04,16,03,02,8.70
2012,04,16,03,03,8.70
2012,04,16,03,04,8.70
2012,04,16,03,05,8.70
2012,04,16,03,06,8.60
2012,04,16,03,07,8.60
2012,04,16,03,08,8.60
2012,04,16,03,09,8.60
2012,04,16,03,10,8.60
2012,04,16,03,11,8.50
2012,04,16,03,12,8.50
2012,04,16,03,13,8.50
2012,04,16,03,14,8.40
2012,04,16,03,15,8.40
2012,04,16,03,16,8.40
2012,04,16,03,17,8.40
2012,04,16,03,18,8.30
2012,04,16,03,19,8.30
2012,04,16,03,20,8.30
2012,04,16,03,21,8.30
2012,04,16,03,22,8.30
2012,04,16,03,23,8.20
2012,04,16,03,24,8.20
2012,04,16,03,25,8.20
2012,04,16,03,26,8.20
2012,04,16,03,27,8.20
2012,04,16,03,28,8.20
2012,04,16,03,29,8.10
2012,04,16,03,30,8.10
2012,04,16,03,31,8.10
2012,04,16,03,32,8.10
2012,04,16,03,33,8.10
2012,04,16,03,34,8.00
2012,04,16,03,35,8.00
2012,04,16,03,36,8.00
2012,04,16,03,37,8.00
2012,04,16,03,38,8.00
2012,04,16,03,39,7.90
2012,04,16,03,40,7.90
2012,04,16,03,41,7.90
2012,04,16,03,42,7.90
2012,04,16,03,43,7.90
2012,04,16,03,44,7.90
2012,04,16,03,45,7.90
2012,04,16,03,46,7.90
2012,04,16,03,47,7.90
2012,04,16,03,48,7.90
2012,04,16,03,49,7.90
2012,04,16,03,50,7.80
2012,04,16,03,51,7.80
2012,04,16,03,52,7.80
2012,04,16,03,53,7.80
2012,04,16,03,54,7.80
2012,04,16,03,55,7.80
2012,04,16,03,56,7.80
2012,04,16,03,57,7.80
2012,04,16,03,58,7.80
2012,04,16,03,59,7.80
2012,04,16,04,00,7.80
2012,04,16,04,01,7.80
2012,04,16,04,02,7.80
2012,04,16,04,03,7.80
2012,04,16,04,04,7.80
2012,04,16,04,05,7.80
2012,04,16,04,06,7.70
2012,04,16,04,07,7.70
2012,04,16,04,08,7.70
2012,04,16,04,09,7.70
2012,04,16,04,10,7.70
2012,04,16,04,11,7.70
2012,04,16,04,12,7.70
2012,04,16,04,13,7.70
2012,04,16,04,14,7.70
2012,04,16,04,15,7.70
2012,04,16,04,16,7.70
2012,04,16,04,17,7.70
2012,04,16,04,18,7.70
2012,04,16,04,19,7.70
2012,04,16,04,20,7.70
2012,04,16,04,21,7.70
2012,04,16,04,22,7.70
2012,04,16,04,23,7.70
2012,04,16,04,24,7.70
2012,04,16,04,25,7.70
2012,04,16,04,26,7.70
2012,04,16,04,27,7.70
2012,04,16,04,28,7.70
2012,04,16,04,29,7.70
2012,04,16,04,30,7.70
2012,04,16,04,31,7.70
2012,04,16,04,32,7.70
2012,04,16,04,33,7.70
2012,04,16,04,34,7.70
2012,04,16,04,35,7.70
2012,04,16,04,36,7.70
2012,04,16,04,37,7.70
2012,04,16,04,38,7.70
2012,04,16,04,39,7.70
2012,04,16,04,40,7.70
2012,04,16,04,41,7.70
2012,04,16,04,42,7.70
2012,04,16,04,43,7.70
2012,04,16,04,44,7.60
2012,04,16,04,45,7.60
2012,04,16,04,46,7.60
2012,04,16,04,47,7.60
2012,04,16,04,48,7.60
2012,04,16,04,49,7.60
2012,04,16,04,50,7.60
2012,04,16,04,51,7.60
2012,04,16,04,52,7.60
2012,04,16,04,53,7.60
2012,04,16,04,54,7.60
2012,04,16,04,55,7.60
2012,04,16,04,56,7.60
2012,04,16,04,57,7.60
2012,04,16,04,58,7.60
2012,04,16,04,59,7.60
2012,04,16,05,00,7.60
2012,04,16,05,01,7.60
2012,04,16,05,02,7.60
2012,04,16,05,03,7.60
2012,04,16,05,04,7.60
2012,04,16,05,05,7.70
2012,04,16,05,06,7.70
2012,04,16,05,07,7.70
2012,04,16,05,08,7.70
2012,04,16,05,09,7.70
2012,04,16,05,10,7.70
2012,04,16,05,11,7.70
2012,04,16,05,12,7.70
2012,04,16,05,13,7.70
2012,04,16,05,14,7.70
2012,04,16,05,15,7.70
2012,04,16,05,16,7.70
2012,04,16,05,17,7.70
2012,04,16,05,18,7.70
2012,04,16,05,19,7.70
2012,04,16,05,20,7.70
2012,04,16,05,21,7.70
2012,04,16,05,22,7.70
2012,04,16,05,23,7.70
2012,04,16,05,24,7.70
2012,04,16,05,25,7.70
2012,04,16,05,26,7.70
2012,04,16,05,27,7.70
2012,04,16,05,28,7.70
2012,04,16,05,29,7.80
2012,04,16,05,30,7.80
2012,04,16,05,31,7.80
2012,04,16,05,32,7.80
2012,04,16,05,33,7.80
2012,04,16,05,34,7.80
2012,04,16,05,35,7.80
2012,04,16,05,36,7.80
2012,04,16,05,37,7.80
2012,04,16,05,38,7.80
2012,04,16,05,39,7.80
2012,04,16,05,40,7.80
2012,04,16,05,41,7.80
2012,04,16,05,42,7.80
2012,04,16,05,43,7.80
2012,04,16,05,44,7.80
2012,04,16,05,45,7.80
2012,04,16,05,46,7.80
2012,04,16,05,47,7.80
2012,04,16,05,48,7.80
2012,04,16,05,49,7.70
2012,04,16,05,50,7.70
2012,04,16,05,51,7.70
2012,04,16,05,52,7.70
2012,04,16,05,53,7.70
2012,04,16,05,54,7.70
2012,04,16,05,55,7.70
2012,04,16,05,56,7.70
2012,04,16,05,57,7.70
2012,04,16,05,58,7.70
2012,04,16,05,59,7.70
2012,04,16,06,00,7.70
2012,04,16,06,01,7.70
2012,04,16,06,02,7.70
2012,04,16,06,03,7.70
2012,04,16,06,04,7.70
2012,04,16,06,05,7.70
2012,04,16,06,06,7.70
2012,04,16,06,07,7.70
2012,04,16,06,08,7.70
2012,04,16,06,09,7.70
2012,04,16,06,10,7.70
2012,04,16,06,11,7.70
2012,04,16,06,12,7.60
2012,04,16,06,13,7.60
2012,04,16,06,14,7.60
2012,04,16,06,15,7.60
2012,04,16,06,16,7.60
2012,04,16,06,17,7.60
2012,04,16,06,18,7.60
2012,04,16,06,19,7.60
2012,04,16,06,20,7.60
2012,04,16,06,21,7.60
2012,04,16,06,22,7.60
2012,04,16,06,23,7.60
2012,04,16,06,24,7.60
2012,04,16,06,25,7.60
2012,04,16,06,26,7.60
2012,04,16,06,27,7.60
2012,04,16,06,28,7.60
2012,04,16,06,29,7.60
2012,04,16,06,30,7.60
2012,04,16,06,31,7.60
2012,04,16,06,32,7.60
2012,04,16,06,33,7.60
2012,04,16,06,34,7.60
2012,04,16,06,35,7.60
2012,04,16,06,36,7.60
2012,04,16,06,37,7.60
2012,04,16,06,38,7.60
2012,04,16,06,39,7.60
2012,04,16,06,40,7.60
2012,04,16,06,41,7.60
2012,04,16,06,42,7.60
2012,04,16,06,43,7.60
2012,04,16,06,44,7.60
2012,04,16,06,45,7.60
2012,04,16,06,46,7.60
2012,04,16,06,47,7.60
2012,04,16,06,48,7.60
2012,04,16,06,49,7.60
2012,04,16,06,50,7.60
2012,04,16,06,51,7.60
2012,04,16,06,52,7.60
2012,04,16,06,53,7.60
2012,04,16,06,54,7.60
2012,04,16,06,55,7.60
2012,04,16,06,56,7.60
2012,04,16,06,57,7.60
2012,04,16,06,58,7.60
2012,04,16,06,59,7.60
2012,04,16,07,00,7.60
2012,04,16,07,01,7.60
2012,04,16,07,02,7.60
2012,04,16,07,03,7.60
2012,04,16,07,04,7.60
2012,04,16,07,05,7.60
2012,04,16,07,06,7.60
2012,04,16,07,07,7.60
2012,04,16,07,08,7.60
2012,04,16,07,09,7.60
2012,04,16,07,10,7.60
2012,04,16,07,11,7.60
2012,04,16,07,12,7.60
2012,04,16,07,13,7.60
2012,04,16,07,14,7.60
2012,04,16,07,15,7.50
2012,04,16,07,16,7.50
2012,04,16,07,17,7.50
2012,04,16,07,18,7.50
2012,04,16,07,19,7.50
2012,04,16,07,20,7.50
2012,04,16,07,21,7.50
2012,04,16,07,22,7.50
2012,04,16,07,23,7.40
2012,04,16,07,24,7.50
2012,04,16,07,25,7.50
2012,04,16,07,26,7.40
2012,04,16,07,27,7.40
2012,04,16,07,28,7.40
2012,04,16,07,29,7.40
2012,04,16,07,30,7.40
2012,04,16,07,31,7.40
2012,04,16,07,32,7.40
2012,04,16,07,33,7.40
2012,04,16,07,34,7.40
2012,04,16,07,35,7.40
2012,04,16,07,36,7.30
2012,04,16,07,37,7.30
2012,04,16,07,38,7.30
2012,04,16,07,39,7.30
2012,04,16,07,40,7.30
2012,04,16,07,41,7.20
2012,04,16,07,42,7.20
2012,04,16,07,43,7.20
2012,04,16,07,44,7.20
2012,04,16,07,45,7.20
2012,04,16,07,46,7.20
2012,04,16,07,47,7.20
2012,04,16,07,48,7.20
2012,04,16,07,49,7.20
2012,04,16,07,50,7.20
2012,04,16,07,51,7.20
2012,04,16,07,52,7.20
2012,04,16,07,53,7.20
2012,04,16,07,54,7.20
2012,04,16,07,55,7.20
2012,04,16,07,56,7.20
2012,04,16,07,57,7.20
2012,04,16,07,58,7.20
2012,04,16,07,59,7.20
2012,04,16,08,00,7.20
2012,04,16,08,01,7.20
2012,04,16,08,02,7.20
2012,04,16,08,03,7.20
2012,04,16,08,04,7.20
2012,04,16,08,05,7.20
2012,04,16,08,06,7.20
2012,04,16,08,07,7.20
2012,04,16,08,08,7.20
2012,04,16,08,09,7.20
2012,04,16,08,10,7.20
2012,04,16,08,11,7.20
2012,04,16,08,12,7.20
2012,04,16,08,13,7.20
2012,04,16,08,14,7.20
2012,04,16,08,15,7.20
2012,04,16,08,16,7.20
2012,04,16,08,17,7.20
2012,04,16,08,18,7.20
2012,04,16,08,19,7.20
2012,04,16,08,20,7.20
2012,04,16,08,21,7.20
2012,04,16,08,22,7.20
2012,04,16,08,23,7.20
2012,04,16,08,24,7.20
2012,04,16,08,25,7.20
2012,04,16,08,26,7.20
2012,04,16,08,27,7.20
2012,04,16,08,28,7.20
2012,04,16,08,29,7.20
2012,04,16,08,30,7.20
2012,04,16,08,31,7.20
2012,04,16,08,32,7.20
2012,04,16,08,33,7.20
2012,04,16,08,34,7.20
2012,04,16,08,35,7.20
2012,04,16,08,36,7.20
2012,04,16,08,37,7.20
2012,04,16,08,38,7.20
2012,04,16,08,39,7.20
2012,04,16,08,40,7.20
2012,04,16,08,41,7.20
2012,04,16,08,42,7.20
2012,04,16,08,43,7.20
2012,04,16,08,44,7.20
2012,04,16,08,45,7.20
2012,04,16,08,46,7.20
2012,04,16,08,47,7.20
2012,04,16,08,48,7.20
2012,04,16,08,49,7.20
2012,04,16,08,50,7.20
2012,04,16,08,51,7.20
2012,04,16,08,52,7.20
2012,04,16,08,53,7.20
2012,04,16,08,54,7.20
2012,04,16,08,55,7.20
2012,04,16,08,56,7.20
2012,04,16,08,57,7.20
2012,04,16,08,58,7.20
2012,04,16,08,59,7.30
2012,04,16,09,00,7.30
2012,04,16,09,01,7.30
2012,04,16,09,02,7.30
2012,04,16,09,03,7.30
2012,04,16,09,04,7.30
2012,04,16,09,05,7.30
2012,04,16,09,06,7.30
2012,04,16,09,07,7.30
2012,04,16,09,08,7.30
2012,04,16,09,09,7.30
2012,04,16,09,10,7.30
2012,04,16,09,11,7.30
2012,04,16,09,12,7.30
2012,04,16,09,13,7.30
2012,04,16,09,14,7.30
2012,04,16,09,15,7.30
2012,04,16,09,16,7.30
2012,04,16,09,17,7.30
2012,04,16,09,18,7.30
2012,04,16,09,19,7.40
2012,04,16,09,20,7.40
2012,04,16,09,21,7.40
2012,04,16,09,22,7.40
2012,04,16,09,23,7.40
2012,04,16,09,24,7.40
2012,04,16,09,25,7.40
2012,04,16,09,26,7.40
2012,04,16,09,27,7.40
2012,04,16,09,28,7.40
2012,04,16,09,29,7.40
2012,04,16,09,30,7.40
2012,04,16,09,31,7.40
2012,04,16,09,32,7.40
2012,04,16,09,33,7.50
2012,04,16,09,34,7.40
2012,04,16,09,35,7.40
2012,04,16,09,36,7.40
2012,04,16,09,37,7.50
2012,04,16,09,38,7.50
2012,04,16,09,39,7.50
2012,04,16,09,40,7.50
2012,04,16,09,41,7.50
2012,04,16,09,42,7.50
2012,04,16,09,43,7.50
2012,04,16,09,44,7.50
2012,04,16,09,45,7.50
2012,04,16,09,46,7.50
2012,04,16,09,47,7.50
2012,04,16,09,48,7.50
2012,04,16,09,49,7.50
2012,04,16,09,50,7.50
2012,04,16,09,51,7.50
2012,04,16,09,52,7.60
2012,04,16,09,53,7.60
2012,04,16,09,54,7.60
2012,04,16,09,55,7.60
2012,04,16,09,56,7.60
2012,04,16,09,57,7.60
2012,04,16,09,58,7.70
2012,04,16,09,59,7.70
2012,04,16,10,00,7.80
2012,04,16,10,01,7.80
2012,04,16,10,02,7.80
2012,04,16,10,03,7.80
2012,04,16,10,04,7.80
2012,04,16,10,05,7.90
2012,04,16,10,06,7.90
2012,04,16,10,07,7.90
2012,04,16,10,08,7.90
2012,04,16,10,09,7.90
2012,04,16,10,10,7.90
2012,04,16,10,11,7.90
2012,04,16,10,12,7.90
2012,04,16,10,13,7.90
2012,04,16,10,14,7.90
2012,04,16,10,15,7.90
2012,04,16,10,16,7.90
2012,04,16,10,17,7.90
2012,04,16,10,18,8.00
2012,04,16,10,19,8.00
2012,04,16,10,20,8.00
2012,04,16,10,21,8.00
2012,04,16,10,22,8.10
2012,04,16,10,23,8.10
2012,04,16,10,24,8.10
2012,04,16,10,25,8.10
2012,04,16,10,26,8.10
2012,04,16,10,27,8.10
2012,04,16,10,28,8.10
2012,04,16,10,29,8.10
2012,04,16,10,30,8.10
2012,04,16,10,31,8.20
2012,04,16,10,32,8.20
2012,04,16,10,33,8.20
2012,04,16,10,34,8.20
2012,04,16,10,35,8.20
2012,04,16,10,36,8.20
2012,04,16,10,37,8.30
2012,04,16,10,38,8.30
2012,04,16,10,39,8.30
2012,04,16,10,40,8.30
2012,04,16,10,41,8.30
2012,04,16,10,42,8.20
2012,04,16,10,43,8.20
2012,04,16,10,44,8.20
2012,04,16,10,45,8.20
2012,04,16,10,46,8.20
2012,04,16,10,47,8.20
2012,04,16,10,48,8.20
2012,04,16,10,49,8.20
2012,04,16,10,50,8.20
2012,04,16,10,51,8.20
2012,04,16,10,52,8.20
2012,04,16,10,53,8.20
2012,04,16,10,54,8.20
2012,04,16,10,55,8.30
2012,04,16,10,56,8.30
2012,04,16,10,57,8.30
2012,04,16,10,58,8.30
2012,04,16,10,59,8.30
2012,04,16,11,00,8.30
2012,04,16,11,01,8.30
2012,04,16,11,02,8.40
2012,04,16,11,03,8.40
2012,04,16,11,04,8.40
2012,04,16,11,05,8.50
2012,04,16,11,06,8.50
2012,04,16,11,07,8.60
2012,04,16,11,08,8.60
2012,04,16,11,09,8.70
2012,04,16,11,10,8.70
2012,04,16,11,11,8.70
2012,04,16,11,12,8.80
2012,04,16,11,13,8.70
2012,04,16,11,14,8.80
2012,04,16,11,15,8.70
2012,04,16,11,16,8.80
2012,04,16,11,17,8.80
2012,04,16,11,18,8.80
2012,04,16,11,19,8.80
2012,04,16,11,20,8.80
2012,04,16,11,21,8.80
2012,04,16,11,22,8.80
2012,04,16,11,23,8.80
2012,04,16,11,24,8.80
2012,04,16,11,25,8.80
2012,04,16,11,26,8.80
2012,04,16,11,27,8.80
2012,04,16,11,28,8.80
2012,04,16,11,29,8.80
2012,04,16,11,30,8.80
2012,04,16,11,31,8.80
2012,04,16,11,32,8.80
2012,04,16,11,33,8.90
2012,04,16,11,34,8.90
2012,04,16,11,35,8.90
2012,04,16,11,36,8.90
2012,04,16,11,37,8.90
2012,04,16,11,38,8.90
2012,04,16,11,39,8.90
2012,04,16,11,40,9.00
2012,04,16,11,41,9.00
2012,04,16,11,42,9.10
2012,04,16,11,43,9.10
2012,04,16,11,44,9.10
2012,04,16,11,45,9.10
2012,04,16,11,46,9.10
2012,04,16,11,47,9.10
2012,04,16,11,48,9.20
2012,04,16,11,49,9.20
2012,04,16,11,50,9.20
2012,04,16,11,51,9.30
2012,04,16,11,52,9.40
2012,04,16,11,53,9.50
2012,04,16,11,54,9.60
2012,04,16,11,55,9.60
2012,04,16,11,56,9.70
2012,04,16,11,57,9.70
2012,04,16,11,58,9.70
2012,04,16,11,59,9.70
2012,04,16,12,00,9.70
2012,04,16,12,01,9.70
2012,04,16,12,02,9.70
2012,04,16,12,03,9.80
2012,04,16,12,04,9.90
2012,04,16,12,05,10.10
2012,04,16,12,06,10.20
2012,04,16,12,07,10.20
2012,04,16,12,08,10.30
2012,04,16,12,09,10.40
2012,04,16,12,10,10.60
2012,04,16,12,11,10.70
2012,04,16,12,12,10.80
2012,04,16,12,13,10.90
2012,04,16,12,14,10.90
2012,04,16,12,15,10.90
2012,04,16,12,16,11.00
2012,04,16,12,17,11.10
2012,04,16,12,18,11.20
2012,04,16,12,19,11.30
2012,04,16,12,20,11.30
2012,04,16,12,21,11.40
2012,04,16,12,22,11.40
2012,04,16,12,23,11.50
2012,04,16,12,24,11.50
2012,04,16,12,25,11.60
2012,04,16,12,26,11.70
2012,04,16,12,27,11.80
2012,04,16,12,28,11.80
2012,04,16,12,29,11.80
2012,04,16,12,30,11.90
2012,04,16,12,31,11.90
2012,04,16,12,32,11.90
2012,04,16,12,33,11.90
2012,04,16,12,34,11.90
2012,04,16,12,35,11.90
2012,04,16,12,36,11.80
2012,04,16,12,37,11.80
2012,04,16,12,38,11.80
2012,04,16,12,39,11.80
2012,04,16,12,40,11.80
2012,04,16,12,41,11.80
2012,04,16,12,42,11.70
2012,04,16,12,43,11.70
2012,04,16,12,44,11.60
2012,04,16,12,45,11.60
2012,04,16,12,46,11.50
2012,04,16,12,47,11.30
2012,04,16,12,48,11.20
2012,04,16,12,49,11.10
2012,04,16,12,50,11.10
2012,04,16,12,51,11.00
2012,04,16,12,52,10.90
2012,04,16,12,53,10.90
2012,04,16,12,54,10.80
2012,04,16,12,55,10.80
2012,04,16,12,56,10.80
2012,04,16,12,57,10.80
2012,04,16,12,58,10.80
2012,04,16,12,59,10.80
2012,04,16,13,00,10.80
2012,04,16,13,01,10.80
2012,04,16,13,02,10.80
2012,04,16,13,03,10.80
2012,04,16,13,04,10.80
2012,04,16,13,05,10.80
2012,04,16,13,06,10.90
2012,04,16,13,07,11.00
2012,04,16,13,08,11.10
2012,04,16,13,09,11.20
2012,04,16,13,10,11.30
2012,04,16,13,11,11.50
2012,04,16,13,12,11.60
2012,04,16,13,13,11.80
2012,04,16,13,14,12.00
2012,04,16,13,15,12.20
2012,04,16,13,16,12.30
2012,04,16,13,17,12.40
2012,04,16,13,18,12.50
2012,04,16,13,19,12.50
2012,04,16,13,20,12.70
2012,04,16,13,21,12.80
2012,04,16,13,22,12.90
2012,04,16,13,23,13.10
2012,04,16,13,24,13.10
2012,04,16,13,25,13.20
2012,04,16,13,26,13.30
2012,04,16,13,27,13.50
2012,04,16,13,28,13.60
2012,04,16,13,29,13.70
2012,04,16,13,30,13.60
2012,04,16,13,31,13.50
2012,04,16,13,32,13.40
2012,04,16,13,33,13.40
2012,04,16,13,34,13.50
2012,04,16,13,35,13.40
2012,04,16,13,36,13.30
2012,04,16,13,37,13.30
2012,04,16,13,38,13.20
2012,04,16,13,39,13.20
2012,04,16,13,40,13.20
2012,04,16,13,41,13.30
2012,04,16,13,42,13.30
2012,04,16,13,43,13.30
2012,04,16,13,44,13.30
2012,04,16,13,45,13.30
2012,04,16,13,46,13.40
2012,04,16,13,47,13.50
2012,04,16,13,48,13.60
2012,04,16,13,49,13.70
2012,04,16,13,50,13.70
2012,04,16,13,51,13.70
2012,04,16,13,52,13.70
2012,04,16,13,53,13.60
2012,04,16,13,54,13.50
2012,04,16,13,55,13.40
2012,04,16,13,56,13.40
2012,04,16,13,57,13.40
2012,04,16,13,58,13.30
2012,04,16,13,59,13.30
2012,04,16,14,00,13.40
2012,04,16,14,01,13.40
2012,04,16,14,02,13.40
2012,04,16,14,03,13.30
2012,04,16,14,04,13.30
2012,04,16,14,05,13.30
2012,04,16,14,06,13.40
2012,04,16,14,07,13.50
2012,04,16,14,08,13.60
2012,04,16,14,09,13.60
2012,04,16,14,10,13.60
2012,04,16,14,11,13.60
2012,04,16,14,12,13.60
2012,04,16,14,13,13.60
2012,04,16,14,14,13.50
2012,04,16,14,15,13.40
2012,04,16,14,16,13.20
2012,04,16,14,17,13.00
2012,04,16,14,18,12.90
2012,04,16,14,19,12.80
2012,04,16,14,20,12.70
2012,04,16,14,21,12.80
2012,04,16,14,22,12.80
2012,04,16,14,23,12.80
2012,04,16,14,24,12.90
2012,04,16,14,25,13.10
2012,04,16,14,26,13.10
2012,04,16,14,27,13.30
2012,04,16,14,28,13.40
2012,04,16,14,29,13.40
2012,04,16,14,30,13.50
2012,04,16,14,31,13.50
2012,04,16,14,32,13.50
2012,04,16,14,33,13.40
2012,04,16,14,34,13.40
2012,04,16,14,35,13.30
2012,04,16,14,36,13.30
2012,04,16,14,37,13.30
2012,04,16,14,38,13.20
2012,04,16,14,39,13.30
2012,04,16,14,40,13.30
2012,04,16,14,41,13.20
2012,04,16,14,42,13.10
2012,04,16,14,43,13.00
2012,04,16,14,44,12.90
2012,04,16,14,45,12.80
2012,04,16,14,46,12.70
2012,04,16,14,47,12.60
2012,04,16,14,48,12.60
2012,04,16,14,49,12.50
2012,04,16,14,50,12.50
2012,04,16,14,51,12.50
2012,04,16,14,52,12.50
2012,04,16,14,53,12.60
2012,04,16,14,54,12.60
2012,04,16,14,55,12.80
2012,04,16,14,56,12.80
2012,04,16,14,57,12.90
2012,04,16,14,58,12.90
2012,04,16,14,59,12.90
2012,04,16,15,00,12.90
2012,04,16,15,01,12.80
2012,04,16,15,02,12.70
2012,04,16,15,03,12.60
2012,04,16,15,04,12.60
2012,04,16,15,05,12.40
2012,04,16,15,06,12.30
2012,04,16,15,07,12.20
2012,04,16,15,08,12.10
2012,04,16,15,09,12.10
2012,04,16,15,10,12.10
2012,04,16,15,11,12.10
2012,04,16,15,12,12.10
2012,04,16,15,13,12.00
2012,04,16,15,14,11.90
2012,04,16,15,15,11.90
2012,04,16,15,16,11.90
2012,04,16,15,17,12.00
2012,04,16,15,18,12.10
2012,04,16,15,19,12.20
2012,04,16,15,20,12.30
2012,04,16,15,21,12.40
2012,04,16,15,22,12.50
2012,04,16,15,23,12.50
2012,04,16,15,24,12.50
2012,04,16,15,25,12.50
2012,04,16,15,26,12.50
2012,04,16,15,27,12.60
2012,04,16,15,28,12.70
2012,04,16,15,29,12.70
2012,04,16,15,30,12.70
2012,04,16,15,31,12.70
2012,04,16,15,32,12.70
2012,04,16,15,33,12.80
2012,04,16,15,34,12.80
2012,04,16,15,35,12.90
2012,04,16,15,36,12.90
2012,04,16,15,37,13.00
2012,04,16,15,38,13.20
2012,04,16,15,39,13.20
2012,04,16,15,40,13.10
2012,04,16,15,41,13.00
2012,04,16,15,42,12.90
2012,04,16,15,43,12.70
2012,04,16,15,44,12.60
2012,04,16,15,45,12.50
2012,04,16,15,46,12.40
2012,04,16,15,47,12.30
2012,04,16,15,48,12.30
2012,04,16,15,49,12.20
2012,04,16,15,50,12.30
2012,04,16,15,51,12.30
2012,04,16,15,52,12.30
2012,04,16,15,53,12.30
2012,04,16,15,54,12.30
2012,04,16,15,55,12.20
2012,04,16,15,56,12.20
2012,04,16,15,57,12.20
2012,04,16,15,58,12.20
2012,04,16,15,59,12.20
2012,04,16,16,00,12.20
2012,04,16,16,01,12.30
2012,04,16,16,02,12.40
2012,04,16,16,03,12.50
2012,04,16,16,04,12.60
2012,04,16,16,05,12.70
2012,04,16,16,06,12.80
2012,04,16,16,07,12.90
2012,04,16,16,08,13.00
2012,04,16,16,09,13.00
2012,04,16,16,10,12.90
2012,04,16,16,11,12.90
2012,04,16,16,12,12.90
2012,04,16,16,13,12.70
2012,04,16,16,14,12.60
2012,04,16,16,15,12.60
2012,04,16,16,16,12.60
2012,04,16,16,17,12.50
2012,04,16,16,18,12.30
2012,04,16,16,19,12.20
2012,04,16,16,20,12.10
2012,04,16,16,21,12.00
2012,04,16,16,22,12.00
2012,04,16,16,23,12.10
2012,04,16,16,24,12.10
2012,04,16,16,25,12.10
2012,04,16,16,26,12.10
2012,04,16,16,27,12.10
2012,04,16,16,28,12.20
2012,04,16,16,29,12.20
2012,04,16,16,30,12.30
2012,04,16,16,31,12.30
2012,04,16,16,32,12.20
2012,04,16,16,33,12.10
2012,04,16,16,34,12.10
2012,04,16,16,35,12.20
2012,04,16,16,36,12.20
2012,04,16,16,37,12.20
2012,04,16,16,38,12.30
2012,04,16,16,39,12.20
2012,04,16,16,40,12.10
2012,04,16,16,41,12.10
2012,04,16,16,42,12.10
2012,04,16,16,43,12.00
2012,04,16,16,44,11.80
2012,04,16,16,45,11.70
2012,04,16,16,46,11.60
2012,04,16,16,47,11.50
2012,04,16,16,48,11.40
2012,04,16,16,49,11.50
2012,04,16,16,50,11.60
2012,04,16,16,51,11.70
2012,04,16,16,52,11.70
2012,04,16,16,53,11.80
2012,04,16,16,54,11.80
2012,04,16,16,55,11.80
2012,04,16,16,56,11.80
2012,04,16,16,57,11.80
2012,04,16,16,58,11.80
2012,04,16,16,59,11.70
2012,04,16,17,00,11.70
2012,04,16,17,01,11.70
2012,04,16,17,02,11.70
2012,04,16,17,03,11.80
2012,04,16,17,04,11.80
2012,04,16,17,05,11.80
2012,04,16,17,06,11.80
2012,04,16,17,07,11.80
2012,04,16,17,08,11.70
2012,04,16,17,09,11.70
2012,04,16,17,10,11.70
2012,04,16,17,11,11.70
2012,04,16,17,12,11.70
2012,04,16,17,13,11.60
2012,04,16,17,14,11.60
2012,04,16,17,15,11.50
2012,04,16,17,16,11.50
2012,04,16,17,17,11.50
2012,04,16,17,18,11.50
2012,04,16,17,19,11.50
2012,04,16,17,20,11.40
2012,04,16,17,21,11.40
2012,04,16,17,22,11.30
2012,04,16,17,23,11.30
2012,04,16,17,24,11.30
2012,04,16,17,25,11.30
2012,04,16,17,26,11.20
2012,04,16,17,27,11.20
2012,04,16,17,28,11.20
2012,04,16,17,29,11.10
2012,04,16,17,30,11.10
2012,04,16,17,31,11.10
2012,04,16,17,32,11.20
2012,04,16,17,33,11.20
2012,04,16,17,34,11.20
2012,04,16,17,35,11.20
2012,04,16,17,36,11.10
2012,04,16,17,37,11.10
2012,04,16,17,38,11.10
2012,04,16,17,39,11.00
2012,04,16,17,40,11.00
2012,04,16,17,41,11.00
2012,04,16,17,42,11.00
2012,04,16,17,43,11.00
2012,04,16,17,44,11.10
2012,04,16,17,45,11.10
2012,04,16,17,46,11.10
2012,04,16,17,47,11.10
2012,04,16,17,48,11.10
2012,04,16,17,49,11.10